[[{"header":{"parameterUnit":"m.s-1","parameterCategory":2,"la1":30.2991,"la2":30.254,"lo1":-89.0895,"lo2":-89.0444,"dy":0.0017,"dx":0.0017,"nx":28,"ny":28,"refTime":"2024-06-30T21:00:00:Z","depth":"0","parameterNumber":2,"parameterNumberName":"U-component_of_CURRENTS"},"data":[0,0,0,0,0,0,0,0,0,0,0,0,0,0,0,0,0,0,0,0,0,0,0,0,0,0,0,0,0,0,0,0,0,0,0,0,0,0,0,0,0,0,0,0,0,0,0,0,0,0,0,0,0,0,0,0,0,0,0.3976,0.3977,0,0.4001,0.4001,0.4001,0.3969,0.3969,0.3968,0.3967,0.4021,0.4023,0.4025,0,0,0,0,0,0,0,0,0,0,0,0,0,0.3921,0.3922,0.3976,0.3977,0.3978,0.4001,0.4001,0.4001,0.3969,0.3969,0.3968,0.3967,0.402,0.4023,0.4025,0,0,0,0,0,0,0,0,0,0,0,0,0,0.394,0.3922,0.3976,0.3969,0.3969,0.4001,0.4001,0.4001,0.3969,0.3969,0.3968,0.3967,0.4019,0.4022,0.4025,0.4063,0,0,0.4035,0.4036,0,0,0,0,0,0,0,0,0.3939,0.3941,0.3969,0.397,0.397,0.3986,0.4002,0.4025,0.397,0.3963,0.3967,0.3966,0.4016,0.402,0.4018,0.4066,0.4068,0.4035,0.4037,0.4038,0.4039,0,0,0,0,0,0,0,0.3938,0.394,0.398,0.397,0.3971,0.3972,0.3973,0.4005,0.3991,0.3964,0.3963,0.3975,0.4016,0.4015,0.4019,0.4069,0.4035,0.4038,0.4039,0.4041,0.4204,0.4206,0,0,0,0,0,0,0.3946,0.3939,0.398,0.3982,0.3958,0.3974,0.3975,0.3977,0.399,0.3993,0.3976,0.3974,0.401,0.4016,0.4021,0.4077,0.4038,0.4041,0.4043,0.4201,0.4204,0.4207,0,0,0,0,0,0,0.3945,0.3949,0.3979,0.3966,0.397,0.3977,0.3979,0.3978,0.3975,0.4,0.4001,0.3975,0.401,0.4017,0.4055,0.4078,0.4042,0.4045,0.4198,0.4202,0.4206,0.4183,0,0,0,0,0,0,0.3943,0.3948,0.3947,0.3966,0.3972,0.3985,0.3981,0.398,0.3988,0.3984,0.4,0.4004,0.401,0.405,0.4058,0.4082,0.4047,0.4195,0.42,0.4204,0.418,0.4185,0.419,0,0,0,0,0,0.3941,0.3927,0.3946,0.3951,0.3971,0.3986,0.3987,0.3985,0.3988,0.398,0.4006,0.4003,0.4087,0.4054,0.4063,0.4088,0.4193,0.4199,0.4204,0.4178,0.4184,0.419,0,0,0,0,0,0,0.3888,0.3925,0.3945,0.3941,0.3965,0.3982,0.3978,0.399,0.4002,0.4005,0.4023,0.4029,0.408,0.4097,0.4061,0.4157,0.4145,0.4153,0.4123,0.4129,0.4134,0.4123,0.405,0,0,0,0,0,0.3886,0.3892,0.393,0.3928,0.3943,0.3968,0.3975,0.3982,0.4002,0.4005,0.402,0.4059,0.4113,0.4126,0.4169,0.4208,0.4264,0.4239,0.4244,0.4247,0.425,0.4379,0.4395,0.4226,0.4226,0.4225,0,0,0.3864,0.3889,0.3889,0.392,0.394,0.3956,0.3966,0.3979,0.3993,0.4014,0.4029,0.4076,0.4133,0.418,0.4205,0.4189,0.4325,0.4254,0.4256,0.4257,0.4387,0.4403,0.4417,0.4229,0.4229,0.4228,0,0,0.3831,0.3851,0.3853,0.3879,0.3921,0.394,0.3948,0.3975,0.3984,0.4022,0.4056,0.4113,0.4167,0.4212,0.4247,0.4309,0.4353,0.4331,0.4329,0.4454,0.4468,0.4482,0.4563,0.4583,0.4321,0.4321,0.4321,0,0.3807,0.382,0.3853,0.3872,0.3891,0.3936,0.3945,0.3969,0.4003,0.4028,0.4025,0.4155,0.4187,0.4279,0.4294,0.4317,0.4385,0.4291,0.4458,0.4472,0.4486,0.4566,0.4589,0.4321,0.4321,0.4321,0.4321,0,0.3785,0.3804,0.3807,0.3852,0.3871,0.3886,0.3937,0.396,0.399,0.4025,0.4114,0.4175,0.4255,0.4281,0.4299,0.442,0.4435,0.4453,0.4432,0.4501,0.4582,0.4606,0.432,0.432,0.432,0.4321,0,0,0.3709,0.3779,0.378,0.3799,0.3865,0.3869,0.3919,0.3972,0.4005,0.4066,0.4124,0.4225,0.4272,0.4319,0.4368,0.4455,0.4599,0.4486,0.4493,0.4545,0.4861,0.481,0.4832,0.4653,0.4658,0.4662,0.4871,0,0.3686,0.3708,0.3754,0.3769,0.3784,0.3852,0.3886,0.3945,0.4005,0.4068,0.4176,0.4254,0.4287,0.4333,0.4435,0.4568,0.4666,0.4539,0.4805,0.4812,0.4742,0.486,0.4599,0.476,0.4895,0.4899,0.4902,0,0.3649,0.3673,0.3686,0.3737,0.3748,0.3765,0.3833,0.3876,0.3998,0.4053,0.4172,0.4257,0.441,0.4421,0.4697,0.462,0.4743,0.4833,0.4845,0.4822,0.4808,0.472,0.4799,0.4568,0.494,0.4937,0.4935,0,0.3566,0.3617,0.3621,0.364,0.371,0.3728,0.3767,0.3868,0.3917,0.4059,0.4124,0.4309,0.442,0.4615,0.4811,0.4777,0.5101,0.5083,0.5152,0.5149,0.499,0.4965,0.4857,0.5289,0.5289,0.5288,0.5288,0,0.3521,0.3516,0.3581,0.3582,0.3584,0.3659,0.3685,0.3761,0.3884,0.3955,0.4117,0.4223,0.4481,0.4687,0.4849,0.5086,0.5157,0.5181,0.522,0.4973,0.4946,0.4788,0.4706,0.5296,0.5294,0.5293,0.5291,0,0.3431,0.3475,0.3477,0.3536,0.3547,0.3549,0.3626,0.3663,0.3794,0.3904,0.3962,0.4207,0.448,0.4725,0.5044,0.5132,0.5196,0.5415,0.5084,0.508,0.4886,0.4815,0.4765,0.4649,0.5519,0.5519,0.5519,0,0.3384,0.3383,0.3421,0.3417,0.3441,0.3459,0.3482,0.3602,0.3666,0.3891,0.3955,0.4236,0.4421,0.4857,0.5084,0.5372,0.521,0.526,0.5146,0.4858,0.4809,0.4677,0.4572,0.4926,0.4921,0.4918,0.4915,0,0.3297,0.3316,0.3319,0.3319,0.3328,0.3337,0.3393,0.3425,0.3591,0.3712,0.3905,0.4065,0.4473,0.4649,0.5004,0.5145,0.4934,0.5191,0.4988,0.4422,0.4179,0.4088,0.478,0.4881,0.4884,0.4887,0.4888,0.489,0.3219,0.3201,0.3213,0.3199,0.3206,0.3205,0.3188,0.3289,0.3375,0.3544,0.3769,0.3935,0.4175,0.4644,0.4772,0.4697,0.4791,0.4538,0.4507,0.4425,0.4195,0.48,0.4885,0.4888,0.4891,0.4893,0.4895,0,0.3111,0.3101,0.3091,0.3062,0.3026,0.3079,0.3116,0.3111,0.3174,0.3376,0.3552,0.3677,0.3805,0.3988,0.4082,0.3991,0.3885,0.3851,0.3541,0.3504,0.4107,0.3953,0.3719,0.372,0.372,0.372,0.372,0.3721,0.3045,0.2992,0.2989,0.2885,0.287,0.2807,0.2805,0.2843,0.2945,0.3028,0.3082,0.3237,0.3371,0.3418,0.3311,0.3279,0.3043,0.2937,0.3,0.3304,0.3361,0.3416,0.3246,0.2868,0.2867,0.2216,0.221,0.2206]},{"header":{"parameterUnit":"m.s-1","parameterCategory":2,"la1":30.2991,"la2":30.254,"lo1":-89.0895,"lo2":-89.0444,"dy":0.0017,"dx":0.0017,"nx":28,"ny":28,"refTime":"2024-06-30T21:00:00:Z","depth":"0","parameterNumber":3,"parameterNumberName":"V-component_of_CURRENTS"},"data":[0,0,0,0,0,0,0,0,0,0,0,0,0,0,0,0,0,0,0,0,0,0,0,0,0,0,0,0,0,0,0,0,0,0,0,0,0,0,0,0,0,0,0,0,0,0,0,0,0,0,0,0,0,0,0,0,0,0,0.1076,0.1077,0,0.111,0.111,0.111,0.1099,0.1099,0.1098,0.1098,0.109,0.1091,0.1091,0,0,0,0,0,0,0,0,0,0,0,0,0,0.0922,0.0925,0.1076,0.1077,0.1077,0.111,0.111,0.111,0.1099,0.1099,0.1098,0.1098,0.109,0.1091,0.1091,0,0,0,0,0,0,0,0,0,0,0,0,0,0.0973,0.0926,0.1076,0.1077,0.1078,0.111,0.111,0.111,0.11,0.1099,0.1098,0.1097,0.109,0.1091,0.1091,0.1109,0,0,0.1092,0.1093,0,0,0,0,0,0,0,0,0.0971,0.0979,0.1077,0.1077,0.1078,0.1102,0.1053,0.1109,0.11,0.1089,0.1098,0.1097,0.1092,0.1093,0.1098,0.1109,0.1108,0.1092,0.1093,0.1093,0.1093,0,0,0,0,0,0,0,0.0967,0.0977,0.1087,0.1077,0.1078,0.1049,0.1056,0.1063,0.1092,0.109,0.109,0.1097,0.1092,0.1098,0.1098,0.1108,0.1092,0.1093,0.1093,0.1093,0.1143,0.1144,0,0,0,0,0,0,0.0974,0.0975,0.1086,0.1088,0.1024,0.1053,0.1061,0.1093,0.1093,0.1093,0.1098,0.1097,0.1097,0.1097,0.1097,0.1146,0.1093,0.1093,0.1093,0.1142,0.1143,0.1144,0,0,0,0,0,0,0.0971,0.0984,0.1085,0.1032,0.1043,0.1058,0.1093,0.1094,0.1103,0.11,0.1099,0.1106,0.1097,0.1097,0.1127,0.1145,0.1093,0.1094,0.114,0.1142,0.1143,0.1227,0,0,0,0,0,0,0.0967,0.0984,0.1005,0.1034,0.1046,0.111,0.1094,0.1095,0.111,0.1109,0.1107,0.1105,0.1096,0.1127,0.1128,0.1144,0.1094,0.1139,0.1141,0.1143,0.1222,0.1231,0.1238,0,0,0,0,0,0.0961,0.1,0.1007,0.102,0.1078,0.1111,0.1114,0.1118,0.1111,0.1122,0.1134,0.1105,0.1139,0.113,0.113,0.1147,0.1138,0.114,0.1143,0.1219,0.1229,0.1238,0,0,0,0,0,0,0.0949,0.1003,0.1011,0.1066,0.1088,0.111,0.1121,0.1125,0.1142,0.114,0.1133,0.1134,0.1164,0.1146,0.1135,0.1165,0.1128,0.1131,0.1186,0.1195,0.1203,0.1202,0.1094,0,0,0,0,0,0.0957,0.1,0.1036,0.108,0.109,0.1105,0.1118,0.1124,0.1144,0.115,0.1156,0.1159,0.1174,0.1178,0.1185,0.1209,0.1155,0.1214,0.1222,0.1229,0.1228,0.1173,0.1175,0.1152,0.1152,0.1152,0,0,0.0967,0.1001,0.1026,0.1079,0.1093,0.1134,0.111,0.1136,0.1176,0.1147,0.1198,0.1191,0.1188,0.1219,0.1228,0.1206,0.1205,0.1232,0.1238,0.1233,0.1176,0.1178,0.118,0.1153,0.1153,0.1153,0,0,0.0999,0.1034,0.1072,0.1099,0.1129,0.1149,0.116,0.1188,0.1201,0.1251,0.1238,0.1246,0.1274,0.1272,0.1276,0.1328,0.1252,0.1322,0.1359,0.1307,0.1308,0.1308,0.1232,0.1224,0.1321,0.1321,0.1321,0,0.1003,0.1072,0.1084,0.1126,0.1163,0.1163,0.1213,0.1234,0.1272,0.1288,0.1277,0.1308,0.1301,0.1332,0.135,0.1345,0.129,0.1328,0.1316,0.1315,0.1314,0.1235,0.1226,0.1325,0.1325,0.1325,0.1324,0,0.1064,0.1119,0.1143,0.1209,0.1243,0.1287,0.1322,0.1351,0.1367,0.138,0.1411,0.14,0.1411,0.1408,0.1401,0.1395,0.1349,0.1335,0.1291,0.1321,0.1236,0.1225,0.1332,0.133,0.1329,0.1328,0,0,0.1086,0.117,0.118,0.1226,0.1296,0.1331,0.1399,0.1455,0.1491,0.1501,0.1541,0.1549,0.1512,0.1512,0.1485,0.1439,0.1382,0.1386,0.1381,0.1307,0.124,0.1225,0.121,0.1361,0.136,0.1359,0.1179,0,0.1132,0.122,0.126,0.1361,0.1415,0.1452,0.1518,0.1561,0.1586,0.1619,0.1587,0.1608,0.1562,0.1559,0.151,0.1435,0.1359,0.143,0.1223,0.1217,0.1198,0.12,0.1173,0.1013,0.1168,0.1166,0.1165,0,0.1188,0.1245,0.1339,0.1446,0.1472,0.1529,0.1624,0.168,0.1716,0.1728,0.1723,0.1696,0.1661,0.1602,0.1455,0.1502,0.1368,0.1284,0.1274,0.1224,0.1183,0.101,0.0987,0.0788,0.1147,0.1149,0.115,0,0.1198,0.1309,0.1386,0.1426,0.1536,0.1584,0.1642,0.1703,0.1752,0.1782,0.1803,0.1756,0.1731,0.1588,0.1446,0.1434,0.1264,0.1222,0.1065,0.1061,0.098,0.0971,0.0739,0.1068,0.1068,0.1069,0.1069,0,0.1249,0.1314,0.1392,0.1439,0.1533,0.1601,0.1691,0.174,0.1803,0.1857,0.1841,0.1861,0.1721,0.1627,0.1463,0.1257,0.1269,0.1063,0.1019,0.1008,0.1005,0.0782,0.0729,0.1062,0.1063,0.1065,0.1066,0,0.1254,0.1309,0.1399,0.1505,0.154,0.1601,0.1721,0.1782,0.1838,0.1907,0.1918,0.192,0.1806,0.1654,0.1431,0.1279,0.0982,0.0991,0.0988,0.0948,0.0615,0.057,0.0318,0.0275,0.0767,0.0766,0.0764,0,0.1265,0.131,0.142,0.1471,0.152,0.1615,0.1688,0.1784,0.1853,0.1943,0.1976,0.1915,0.1905,0.1613,0.1343,0.1056,0.0898,0.0807,0.0778,0.0586,0.0501,0.046,0.0441,0.0681,0.0679,0.0678,0.0677,0,0.1284,0.1313,0.1378,0.1469,0.155,0.1652,0.1758,0.1821,0.1936,0.2009,0.2089,0.2098,0.1858,0.1612,0.1252,0.103,0.0706,0.0766,0.056,0.0414,0.0358,0.0301,0.0795,0.0664,0.0665,0.0666,0.0667,0.0668,0.1279,0.1312,0.1383,0.147,0.1566,0.1677,0.1748,0.1872,0.1992,0.2128,0.2163,0.2201,0.1844,0.1375,0.1091,0.051,0.0575,0.0306,0.0261,0.0229,0.0214,0.0685,0.0526,0.0526,0.0527,0.0527,0.0527,0,0.1259,0.1303,0.1384,0.1486,0.1574,0.1638,0.1788,0.1864,0.1995,0.217,0.2274,0.2092,0.1645,0.1158,0.0429,0.0069,-0.0029,-0.0137,-0.0233,-0.0229,0.0148,0.0172,-0.006,-0.006,-0.0059,-0.0059,-0.0059,-0.0059,0.1249,0.1295,0.1336,0.1458,0.1538,0.164,0.1719,0.1853,0.1991,0.2156,0.2187,0.2221,0.1799,0.0592,-0.0265,-0.0441,-0.0621,-0.067,-0.073,-0.0519,-0.0483,-0.0448,-0.0445,-0.0801,-0.0802,-0.1096,-0.11,-0.1102]}],[{"header":{"parameterUnit":"m.s-1","parameterCategory":2,"la1":30.2991,"la2":30.254,"lo1":-89.0895,"lo2":-89.0444,"dy":0.0017,"dx":0.0017,"nx":28,"ny":28,"refTime":"2024-06-30T21:00:00:Z","depth":"2","parameterNumber":2,"parameterNumberName":"U-component_of_CURRENTS"},"data":[0,0,0,0,0,0,0,0,0,0,0,0,0,0,0,0,0,0,0,0,0,0,0,0,0,0,0,0,0,0,0,0,0,0,0,0,0,0,0,0,0,0,0,0,0,0,0,0,0,0,0,0,0,0,0,0,0,0,0.37,0.37,0,0.3664,0.3663,0.3662,0.3617,0.3617,0.3616,0.3616,0.3584,0.3584,0.3583,0,0,0,0,0,0,0,0,0,0,0,0,0,0.3695,0.3695,0.37,0.37,0.37,0.3664,0.3663,0.3662,0.3617,0.3617,0.3616,0.3616,0.3584,0.3584,0.3583,0,0,0,0,0,0,0,0,0,0,0,0,0,0.3676,0.3695,0.37,0.3678,0.3676,0.3664,0.3663,0.3662,0.3617,0.3617,0.3616,0.3616,0.3585,0.3584,0.3583,0.3581,0,0,0.358,0.3579,0,0,0,0,0,0,0,0,0.3677,0.3675,0.3681,0.368,0.3677,0.365,0.365,0.3637,0.3617,0.3633,0.3616,0.3616,0.3611,0.3608,0.3593,0.358,0.3579,0.3579,0.3579,0.3578,0.3578,0,0,0,0,0,0,0,0.3679,0.3677,0.368,0.3681,0.3679,0.3658,0.3655,0.3646,0.3619,0.3632,0.363,0.3635,0.3609,0.3594,0.3592,0.3578,0.3579,0.3579,0.3578,0.3577,0.3611,0.3612,0,0,0,0,0,0,0.3697,0.3678,0.3681,0.3679,0.3683,0.3659,0.3655,0.3654,0.3619,0.3615,0.3636,0.3633,0.3596,0.3593,0.359,0.3621,0.3578,0.3577,0.3577,0.3609,0.3611,0.3613,0,0,0,0,0,0,0.3697,0.3698,0.3683,0.3683,0.368,0.366,0.3659,0.3654,0.3643,0.3623,0.3618,0.3632,0.3595,0.3592,0.3594,0.3618,0.3577,0.3576,0.3608,0.361,0.3612,0.3661,0,0,0,0,0,0,0.3697,0.3698,0.3701,0.3684,0.3681,0.3678,0.366,0.3653,0.365,0.3647,0.3619,0.3615,0.3595,0.3596,0.3593,0.3616,0.3575,0.3606,0.3609,0.3611,0.3657,0.3664,0.367,0,0,0,0,0,0.3697,0.3689,0.3701,0.3701,0.3687,0.3679,0.3675,0.3655,0.365,0.3644,0.3635,0.3616,0.3612,0.3596,0.3592,0.3616,0.3604,0.3608,0.3611,0.3654,0.3663,0.367,0,0,0,0,0,0,0.368,0.3684,0.3696,0.369,0.3694,0.3674,0.3663,0.3663,0.3648,0.3645,0.3626,0.3622,0.3639,0.3623,0.3605,0.3637,0.3609,0.3612,0.3643,0.3651,0.3658,0.3658,0.3574,0,0,0,0,0,0.3685,0.3679,0.3692,0.3685,0.3691,0.3685,0.368,0.3674,0.3664,0.3656,0.3644,0.364,0.365,0.3645,0.3645,0.3653,0.3681,0.367,0.3677,0.3682,0.3682,0.3765,0.3779,0.3624,0.3624,0.3624,0,0,0.367,0.3678,0.367,0.3682,0.3679,0.3685,0.3678,0.3672,0.3677,0.3657,0.3652,0.3662,0.366,0.3674,0.368,0.3661,0.3744,0.3687,0.3691,0.3688,0.377,0.3785,0.3799,0.3626,0.3626,0.3626,0,0,0.3644,0.3655,0.3648,0.3661,0.3676,0.3678,0.3685,0.3683,0.3681,0.3689,0.3689,0.3714,0.3706,0.3718,0.3723,0.3767,0.3783,0.3772,0.3795,0.3876,0.389,0.3902,0.3969,0.3986,0.3768,0.3768,0.3768,0,0.3636,0.3632,0.3644,0.3655,0.3664,0.3681,0.3686,0.369,0.3689,0.3704,0.3694,0.3736,0.373,0.3773,0.3785,0.3781,0.3829,0.3762,0.3886,0.3898,0.391,0.3975,0.3994,0.3771,0.377,0.377,0.377,0,0.3611,0.362,0.3616,0.364,0.3652,0.3653,0.3682,0.3699,0.3711,0.3724,0.3773,0.378,0.3814,0.382,0.3809,0.3891,0.39,0.3892,0.3865,0.3928,0.3993,0.4012,0.3775,0.3774,0.3773,0.3772,0,0,0.3565,0.3594,0.3593,0.3606,0.3646,0.3646,0.3683,0.3718,0.3746,0.3772,0.3818,0.3847,0.3877,0.3886,0.3897,0.3948,0.4069,0.3953,0.3956,0.4018,0.4255,0.4054,0.4055,0.4093,0.4096,0.4099,0.4272,0,0.3546,0.3554,0.3578,0.3586,0.3597,0.3643,0.3672,0.3714,0.3754,0.3804,0.3855,0.3896,0.3897,0.3924,0.3987,0.4048,0.412,0.4023,0.4184,0.4188,0.4001,0.407,0.3653,0.3753,0.429,0.4293,0.4295,0,0.352,0.353,0.3536,0.3571,0.358,0.3592,0.3656,0.3688,0.3782,0.3821,0.3903,0.3947,0.4042,0.4025,0.4193,0.4138,0.4208,0.4247,0.4255,0.4058,0.4021,0.3774,0.3767,0.4327,0.4324,0.4322,0.432,0,0.3474,0.3499,0.3499,0.351,0.3558,0.3576,0.3607,0.3692,0.3732,0.3845,0.3897,0.4018,0.4085,0.42,0.43,0.4266,0.4478,0.4443,0.4335,0.4323,0.3989,0.3939,0.4577,0.4577,0.4577,0.4576,0.4576,0,0.3445,0.3438,0.3473,0.3472,0.3479,0.3536,0.3569,0.3629,0.3731,0.3794,0.3905,0.3986,0.4134,0.4267,0.435,0.4401,0.454,0.4348,0.4353,0.3992,0.3943,0.4447,0.443,0.4583,0.4581,0.458,0.4579,0,0.3387,0.3412,0.3408,0.3445,0.3456,0.3462,0.353,0.3567,0.3674,0.3772,0.3815,0.3994,0.417,0.4311,0.4501,0.4432,0.4517,0.451,0.4063,0.4007,0.4298,0.4282,0.4383,0.4378,0.4373,0.4369,0.4365,0,0.3349,0.3347,0.337,0.337,0.3379,0.3403,0.343,0.3528,0.3583,0.3773,0.3823,0.4019,0.4099,0.4278,0.4198,0.4262,0.4519,0.3941,0.3762,0.4283,0.428,0.427,0.4261,0.3371,0.3359,0.335,0.3343,0,0.3283,0.3295,0.3297,0.3295,0.3305,0.3321,0.3371,0.3399,0.354,0.3605,0.3727,0.3791,0.3881,0.3706,0.3748,0.3746,0.3873,0.3747,0.4453,0.3452,0.3332,0.3327,0.3351,0.3261,0.3269,0.3275,0.3279,0.3283,0.3226,0.3206,0.3214,0.3197,0.3211,0.3213,0.3176,0.3243,0.3276,0.3247,0.3435,0.336,0.3349,0.3133,0.3103,0.3089,0.333,0.3225,0.3253,0.3291,0.311,0.2984,0.2816,0.2821,0.2826,0.283,0.2834,0,0.3124,0.3119,0.3113,0.3071,0.3023,0.3091,0.3107,0.2983,0.2929,0.2936,0.287,0.2539,0.2394,0.2569,0.23,0.2236,0.2211,0.2287,0.2237,0.2315,0.2386,0.216,0.1615,0.1613,0.161,0.1608,0,0,0.3071,0.3013,0.2999,0.2877,0.286,0.2733,0.2705,0.2512,0.2444,0.2228,0.2136,0.2075,0.232,0.1868,0.1807,0.1705,0.2016,0.1646,0.2598,0.2609,0.2677,0.2875,0.2607,0,0,0,0,0]},{"header":{"parameterUnit":"m.s-1","parameterCategory":2,"la1":30.2991,"la2":30.254,"lo1":-89.0895,"lo2":-89.0444,"dy":0.0017,"dx":0.0017,"nx":28,"ny":28,"refTime":"2024-06-30T21:00:00:Z","depth":"2","parameterNumber":3,"parameterNumberName":"V-component_of_CURRENTS"},"data":[0,0,0,0,0,0,0,0,0,0,0,0,0,0,0,0,0,0,0,0,0,0,0,0,0,0,0,0,0,0,0,0,0,0,0,0,0,0,0,0,0,0,0,0,0,0,0,0,0,0,0,0,0,0,0,0,0,0,-0.0222,-0.0222,0,-0.0243,-0.0244,-0.0244,-0.0254,-0.0254,-0.0254,-0.0254,-0.0282,-0.0283,-0.0283,0,0,0,0,0,0,0,0,0,0,0,0,0,-0.0269,-0.0268,-0.0222,-0.0222,-0.0223,-0.0243,-0.0244,-0.0244,-0.0254,-0.0254,-0.0254,-0.0254,-0.0282,-0.0282,-0.0283,0,0,0,0,0,0,0,0,0,0,0,0,0,-0.0265,-0.0267,-0.0222,-0.023,-0.0231,-0.0243,-0.0244,-0.0244,-0.0254,-0.0254,-0.0254,-0.0254,-0.0281,-0.0282,-0.0283,-0.0292,0,0,-0.0287,-0.0287,0,0,0,0,0,0,0,0,-0.0265,-0.0264,-0.0229,-0.0229,-0.023,-0.0246,-0.027,-0.026,-0.0254,-0.0246,-0.0254,-0.0254,-0.027,-0.0272,-0.0277,-0.0293,-0.0294,-0.0287,-0.0288,-0.0288,-0.0289,0,0,0,0,0,0,0,-0.0266,-0.0263,-0.0231,-0.0229,-0.023,-0.026,-0.0258,-0.0269,-0.0258,-0.0246,-0.0247,-0.0249,-0.0271,-0.0276,-0.0277,-0.0294,-0.0287,-0.0288,-0.0289,-0.0289,-0.0285,-0.0285,0,0,0,0,0,0,-0.0258,-0.0263,-0.023,-0.0231,-0.0248,-0.0258,-0.0257,-0.0241,-0.0258,-0.026,-0.0249,-0.0249,-0.0274,-0.0276,-0.0278,-0.0241,-0.0288,-0.0289,-0.029,-0.0286,-0.0285,-0.0284,0,0,0,0,0,0,-0.0259,-0.0254,-0.0229,-0.0249,-0.0248,-0.0257,-0.024,-0.0242,-0.0231,-0.026,-0.0263,-0.0235,-0.0274,-0.0277,-0.0264,-0.0244,-0.029,-0.0291,-0.0287,-0.0286,-0.0285,-0.0196,0,0,0,0,0,0,-0.0259,-0.0254,-0.0235,-0.0247,-0.0246,-0.022,-0.024,-0.0242,-0.0233,-0.0234,-0.0249,-0.0252,-0.0274,-0.0262,-0.0266,-0.0246,-0.0292,-0.0288,-0.0286,-0.0285,-0.02,-0.0192,-0.0185,0,0,0,0,0,-0.0261,-0.023,-0.0233,-0.0229,-0.022,-0.0219,-0.022,-0.0229,-0.0232,-0.022,-0.0226,-0.0251,-0.0256,-0.0262,-0.0266,-0.0247,-0.0289,-0.0287,-0.0285,-0.0203,-0.0194,-0.0185,0,0,0,0,0,0,-0.0231,-0.0228,-0.0232,-0.0199,-0.0203,-0.022,-0.0209,-0.0216,-0.0212,-0.0208,-0.0235,-0.0238,-0.0222,-0.0247,-0.0253,-0.0243,-0.0279,-0.0278,-0.0216,-0.0207,-0.0199,-0.0186,-0.0293,0,0,0,0,0,-0.0218,-0.0195,-0.0204,-0.0175,-0.0177,-0.0191,-0.0189,-0.0194,-0.0197,-0.0195,-0.0194,-0.0206,-0.0221,-0.0222,-0.0232,-0.0222,-0.0252,-0.0216,-0.0208,-0.0202,-0.0194,-0.0235,-0.023,-0.0278,-0.0278,-0.0278,0,0,-0.0197,-0.0193,-0.0178,-0.0168,-0.0174,-0.0155,-0.0189,-0.0177,-0.0154,-0.0199,-0.0151,-0.0174,-0.0212,-0.0198,-0.0195,-0.0214,-0.0198,-0.0199,-0.0193,-0.0189,-0.0232,-0.0228,-0.0224,-0.0277,-0.0277,-0.0278,0,0,-0.0156,-0.0142,-0.0119,-0.0116,-0.0118,-0.012,-0.011,-0.0108,-0.0101,-0.0068,-0.0102,-0.0112,-0.0104,-0.0138,-0.0157,-0.0118,-0.0156,-0.0117,-0.0068,-0.0107,-0.0103,-0.0101,-0.0105,-0.0104,-0.0115,-0.0115,-0.0115,0,-0.0135,-0.0099,-0.0112,-0.0093,-0.0076,-0.0096,-0.0065,-0.0061,-0.0047,-0.004,-0.0036,-0.0052,-0.0081,-0.0103,-0.0084,-0.0102,-0.0114,-0.0096,-0.0097,-0.0095,-0.0094,-0.01,-0.0099,-0.0111,-0.0111,-0.0112,-0.0112,0,-0.0084,-0.0052,-0.0036,-0.001,0.0004,0.003,0.0031,0.0056,0.0072,0.0069,0.0075,0.0037,0.0023,0.0008,-0.002,-0.0031,-0.0037,-0.0081,-0.0117,-0.0083,-0.0092,-0.0093,-0.0104,-0.0106,-0.0107,-0.0108,0,0,-0.0035,-0.0007,0.0003,0.0028,0.0053,0.0073,0.0113,0.0134,0.0163,0.0167,0.0198,0.0155,0.0129,0.0105,0.0055,0.002,0.0025,-0.001,-0.0014,-0.0009,-0.0026,-0.0049,-0.0053,-0.0014,-0.0014,-0.0014,-0.0026,0,0.0011,0.0066,0.0072,0.0144,0.0176,0.0178,0.0222,0.0237,0.0251,0.0283,0.0217,0.0229,0.0165,0.0166,0.012,0.0054,0.0023,0.0034,-0.0065,-0.0067,-0.0089,-0.0056,-0.0076,-0.009,-0.0027,-0.0027,-0.0027,0,0.0063,0.0096,0.0163,0.0224,0.0239,0.0283,0.0345,0.0379,0.0388,0.0397,0.0375,0.0339,0.0296,0.0239,0.0134,0.0152,0.0078,0.0015,0.0012,-0.0044,-0.0093,-0.012,-0.0095,-0.003,-0.003,-0.003,-0.0029,0,0.0106,0.0167,0.0227,0.0249,0.0308,0.0345,0.0388,0.0415,0.0449,0.0469,0.0499,0.0431,0.0425,0.0312,0.0201,0.0174,0.0096,0.003,-0.0067,-0.0068,-0.0124,-0.013,-0.0053,-0.0053,-0.0053,-0.0053,-0.0053,0,0.0157,0.021,0.0254,0.029,0.0373,0.04,0.0481,0.051,0.0552,0.0613,0.0561,0.0599,0.0445,0.0384,0.0252,0.0115,0.0131,-0.0044,-0.0076,-0.009,-0.0093,-0.0083,-0.0086,-0.0053,-0.0053,-0.0053,-0.0053,0,0.0193,0.022,0.0294,0.0365,0.0392,0.0456,0.0542,0.0597,0.0636,0.0718,0.0734,0.0729,0.0675,0.0514,0.0358,0.0194,0.005,-0.001,0.0008,-0.0023,-0.01,-0.0099,-0.0127,-0.0128,-0.0129,-0.0129,-0.013,0,0.0216,0.0255,0.0342,0.0388,0.0424,0.0509,0.0571,0.0634,0.0699,0.0809,0.0861,0.085,0.0876,0.0648,0.0353,0.0115,0.0097,-0.0073,-0.0159,-0.0081,-0.011,-0.0107,-0.0104,-0.0183,-0.0184,-0.0185,-0.0186,0,0.0258,0.0287,0.0341,0.0429,0.0503,0.059,0.0689,0.0759,0.0859,0.0963,0.1108,0.1148,0.0929,0.0688,0.0341,0.0166,-0.0042,-0.0099,-0.0021,-0.0164,-0.0137,-0.0164,-0.0159,-0.0193,-0.0192,-0.0192,-0.0191,-0.0191,0.0285,0.0326,0.0388,0.0471,0.0561,0.068,0.0775,0.0914,0.1076,0.1223,0.1232,0.1278,0.0966,0.0516,0.0242,-0.0071,-0.0081,-0.0223,-0.0219,-0.0215,-0.0223,-0.0199,-0.0266,-0.0265,-0.0265,-0.0265,-0.0265,0,0.0304,0.0346,0.0425,0.0534,0.0638,0.0678,0.0856,0.0981,0.1222,0.1308,0.14,0.1114,0.0841,0.0552,0.005,-0.0252,-0.0272,-0.0301,-0.0284,-0.0277,-0.0271,-0.028,-0.0339,-0.0339,-0.0339,-0.0339,0,0,0.0312,0.0373,0.041,0.0569,0.0657,0.0822,0.0938,0.115,0.1279,0.1414,0.1404,0.124,0.0912,0.0525,0.0141,-0.0084,-0.0101,-0.0121,-0.0046,0.0022,0.0033,-0.0227,-0.0233,0,0,0,0,0]}],[{"header":{"parameterUnit":"m.s-1","parameterCategory":2,"la1":30.2991,"la2":30.254,"lo1":-89.0895,"lo2":-89.0444,"dy":0.0017,"dx":0.0017,"nx":28,"ny":28,"refTime":"2024-06-30T21:00:00:Z","depth":"4","parameterNumber":2,"parameterNumberName":"U-component_of_CURRENTS"},"data":[0,0,0,0,0,0,0,0,0,0,0,0,0,0,0,0,0,0,0,0,0,0,0,0,0,0,0,0,0,0,0,0,0,0,0,0,0,0,0,0,0,0,0,0,0,0,0,0,0,0,0,0,0,0,0,0,0,0,0.0661,0.0663,0,0.0776,0.0775,0.0775,0.0853,0.0856,0.0859,0.0861,0.1097,0.11,0.1104,0,0,0,0,0,0,0,0,0,0,0,0,0,0.0583,0.0581,0.066,0.0664,0.0667,0.0776,0.0775,0.0775,0.0853,0.0856,0.0859,0.0862,0.1095,0.11,0.1104,0,0,0,0,0,0,0,0,0,0,0,0,0,0.0628,0.0581,0.066,0.0735,0.0745,0.0776,0.0775,0.0775,0.0852,0.0856,0.086,0.0864,0.1094,0.1099,0.1105,0.1063,0,0,0.1123,0.1125,0,0,0,0,0,0,0,0,0.0625,0.0628,0.0721,0.0731,0.0742,0.0824,0.0836,0.0885,0.0851,0.0788,0.0861,0.0866,0.1028,0.1039,0.1019,0.1074,0.1084,0.1123,0.1127,0.1129,0.1131,0,0,0,0,0,0,0,0.0622,0.0624,0.0684,0.0725,0.0738,0.0792,0.0799,0.0843,0.087,0.0794,0.0805,0.0852,0.1032,0.1013,0.1026,0.1088,0.1123,0.1128,0.1132,0.1134,0.139,0.1393,0,0,0,0,0,0,0.0643,0.062,0.068,0.0689,0.0717,0.0791,0.0798,0.0775,0.0867,0.0891,0.0849,0.0856,0.1001,0.1019,0.1035,0.1246,0.1129,0.1135,0.1138,0.1387,0.1391,0.1395,0,0,0,0,0,0,0.0639,0.0644,0.0676,0.068,0.0691,0.079,0.0762,0.0776,0.0864,0.0912,0.0933,0.0939,0.1005,0.1027,0.1173,0.1247,0.1137,0.1143,0.1383,0.1388,0.1393,0.1506,0,0,0,0,0,0,0.0635,0.0639,0.0648,0.0678,0.0692,0.0754,0.0762,0.0776,0.0891,0.0903,0.0994,0.1013,0.101,0.1165,0.1179,0.1253,0.1147,0.1379,0.1385,0.1391,0.1498,0.1514,0.1528,0,0,0,0,0,0.063,0.0669,0.0645,0.0657,0.0691,0.0759,0.0769,0.0839,0.0894,0.0931,0.1018,0.1016,0.1214,0.1173,0.1189,0.1266,0.1376,0.1383,0.1391,0.1491,0.1511,0.1528,0,0,0,0,0,0,0.0632,0.0682,0.0658,0.0701,0.0743,0.0783,0.085,0.0896,0.0982,0.1017,0.1064,0.1089,0.1232,0.1241,0.1195,0.1358,0.1292,0.1303,0.1363,0.1382,0.1397,0.1413,0.1152,0,0,0,0,0,0.0629,0.067,0.0702,0.0732,0.0764,0.081,0.0863,0.0899,0.098,0.1023,0.1108,0.1186,0.125,0.132,0.136,0.1466,0.1421,0.1525,0.154,0.1552,0.1577,0.1547,0.156,0.1419,0.1419,0.1419,0,0,0.0636,0.0674,0.0693,0.0739,0.077,0.0812,0.0849,0.0943,0.1004,0.1036,0.1187,0.1245,0.1289,0.1393,0.1459,0.1433,0.157,0.1562,0.1572,0.1591,0.1556,0.1569,0.1581,0.1424,0.1423,0.1423,0,0,0.0663,0.0698,0.0726,0.0769,0.0849,0.0882,0.0938,0.1022,0.1094,0.1233,0.1257,0.1368,0.1512,0.1521,0.1551,0.1678,0.1639,0.1725,0.1834,0.1804,0.1814,0.1823,0.1774,0.1778,0.1745,0.1745,0.1745,0,0.0667,0.0696,0.0751,0.0785,0.0861,0.0929,0.0983,0.1039,0.1173,0.1253,0.1316,0.151,0.1553,0.164,0.1708,0.1709,0.1699,0.1758,0.182,0.1828,0.1834,0.1783,0.1785,0.1752,0.1751,0.175,0.175,0,0.0704,0.0734,0.078,0.0829,0.0901,0.0987,0.1066,0.1169,0.1308,0.1374,0.1557,0.162,0.1752,0.1774,0.181,0.1893,0.187,0.1825,0.1764,0.1855,0.1795,0.1795,0.1761,0.1758,0.1757,0.1755,0,0,0.0708,0.0785,0.0809,0.0825,0.0957,0.101,0.1138,0.1269,0.1375,0.1529,0.1676,0.1814,0.19,0.194,0.1972,0.1976,0.202,0.1978,0.1973,0.1914,0.1974,0.178,0.1761,0.2009,0.201,0.2011,0.1908,0,0.073,0.0785,0.0858,0.0939,0.0974,0.11,0.1215,0.1336,0.149,0.1638,0.1736,0.1903,0.1943,0.2064,0.207,0.2044,0.2032,0.2053,0.1911,0.1907,0.1709,0.1758,0.2015,0.1908,0.1908,0.1908,0.1907,0,0.0748,0.0794,0.0889,0.0982,0.1024,0.1148,0.1369,0.1468,0.1653,0.1782,0.195,0.2035,0.2151,0.2149,0.2142,0.2178,0.212,0.2055,0.2047,0.1831,0.1713,0.1803,0.1906,0.1906,0.1907,0.1907,0.1907,0,0.0714,0.0812,0.0912,0.0957,0.1092,0.125,0.1389,0.1581,0.1692,0.1933,0.2032,0.2158,0.2261,0.2225,0.2173,0.2203,0.207,0.2055,0.179,0.1774,0.1927,0.1918,0.1996,0.1996,0.1997,0.1997,0.1997,0,0.071,0.0762,0.095,0.1,0.1204,0.1303,0.1553,0.1693,0.1884,0.196,0.2158,0.2167,0.2301,0.2243,0.2175,0.1978,0.2071,0.1815,0.1739,0.1977,0.1976,0.1925,0.1918,0.1993,0.1994,0.1995,0.1995,0,0.0621,0.0729,0.0822,0.1053,0.1196,0.1356,0.1689,0.1771,0.1996,0.2096,0.2195,0.2249,0.2145,0.2139,0.2028,0.1955,0.1788,0.167,0.1918,0.1855,0.1518,0.1519,0.1411,0.1403,0.1397,0.1391,0.1387,0,0.058,0.0626,0.0892,0.1008,0.1177,0.1462,0.1623,0.188,0.1919,0.2036,0.1987,0.2006,0.1994,0.1685,0.168,0.1532,0.1483,0.1485,0.1544,0.1524,0.1461,0.1472,0.1482,0.1376,0.1375,0.1373,0.1371,0,0.0497,0.0615,0.0705,0.0949,0.118,0.1339,0.1578,0.1615,0.1778,0.1977,0.1811,0.1767,0.1582,0.1479,0.1406,0.1271,0.1564,0.1418,0.1432,0.1487,0.1481,0.1428,0.1444,0.1349,0.1352,0.1354,0.1356,0,0.0477,0.0507,0.0651,0.0856,0.1073,0.1134,0.1296,0.1338,0.1447,0.1592,0.148,0.1423,0.1495,0.132,0.1182,0.1124,0.1105,0.1164,0.1192,0.1217,0.1198,0.1165,0.087,0,0,0,0,0,0.0449,0.0428,0.0543,0.0714,0.0875,0.1008,0.1174,0.1274,0.146,0.131,0.1431,0.1242,0.1113,0.1039,0.0919,0.1002,0.1066,0.0864,0.114,0.1225,0.1251,0.1246,0,0,0,0,0,0,0.04,0.0472,0.0467,0.0543,0.0627,0.0772,0.0859,0.0963,0.0896,0.109,0.0973,0.1202,0.1011,0.1145,0.0897,0.0892,0.1052,0.0886,0.0884,0.121,0.1234,0.1255,0.1259,0,0,0,0,0]},{"header":{"parameterUnit":"m.s-1","parameterCategory":2,"la1":30.2991,"la2":30.254,"lo1":-89.0895,"lo2":-89.0444,"dy":0.0017,"dx":0.0017,"nx":28,"ny":28,"refTime":"2024-06-30T21:00:00:Z","depth":"4","parameterNumber":3,"parameterNumberName":"V-component_of_CURRENTS"},"data":[0,0,0,0,0,0,0,0,0,0,0,0,0,0,0,0,0,0,0,0,0,0,0,0,0,0,0,0,0,0,0,0,0,0,0,0,0,0,0,0,0,0,0,0,0,0,0,0,0,0,0,0,0,0,0,0,0,0,0.0049,0.0048,0,-0.0007,-0.0008,-0.0008,-0.0028,-0.0028,-0.0028,-0.0028,-0.0266,-0.0272,-0.0278,0,0,0,0,0,0,0,0,0,0,0,0,0,0.0063,0.0064,0.0049,0.0048,0.0047,-0.0007,-0.0008,-0.0008,-0.0028,-0.0028,-0.0028,-0.0028,-0.0264,-0.0272,-0.0279,0,0,0,0,0,0,0,0,0,0,0,0,0,0.0041,0.0064,0.0049,0.0028,0.0025,-0.0007,-0.0008,-0.0008,-0.0028,-0.0028,-0.0028,-0.0029,-0.0262,-0.0271,-0.028,-0.0333,0,0,-0.0308,-0.0312,0,0,0,0,0,0,0,0,0.0042,0.0041,0.0032,0.0029,0.0026,-0.0014,-0.009,-0.0127,-0.0028,-0.0004,-0.0028,-0.0029,-0.0201,-0.0216,-0.0217,-0.0344,-0.0354,-0.0309,-0.0315,-0.0319,-0.0321,0,0,0,0,0,0,0,0.0044,0.0043,0.0031,0.0031,0.0027,-0.0006,-0.0008,-0.0097,-0.0101,-0.0006,-0.0008,-0.0021,-0.0204,-0.0208,-0.0224,-0.0358,-0.0309,-0.0317,-0.0323,-0.0327,-0.0608,-0.061,0,0,0,0,0,0,0.0047,0.0045,0.0033,0.0029,0.0029,-0.0006,-0.0008,0.0002,-0.0096,-0.0111,-0.0021,-0.0022,-0.0192,-0.0213,-0.0233,-0.0348,-0.0319,-0.0327,-0.0333,-0.0606,-0.0608,-0.061,0,0,0,0,0,0,0.0048,0.0048,0.0035,0.003,0.0026,-0.0006,0.0006,0.0001,-0.0018,-0.0106,-0.0124,-0.0036,-0.0193,-0.022,-0.0334,-0.0356,-0.0332,-0.034,-0.0604,-0.0607,-0.0609,-0.0551,0,0,0,0,0,0,0.0049,0.0049,0.0053,0.0032,0.0026,0.0007,0.0005,-0.0,-0.0026,-0.0028,-0.0126,-0.0146,-0.0195,-0.032,-0.0343,-0.0369,-0.0347,-0.0601,-0.0605,-0.0608,-0.055,-0.0551,-0.0552,0,0,0,0,0,0.0051,0.0052,0.0054,0.0051,0.0035,0.0006,0.0,-0.0022,-0.0027,-0.0038,-0.0113,-0.0144,-0.0358,-0.0329,-0.0356,-0.0385,-0.06,-0.0604,-0.0608,-0.055,-0.0551,-0.0552,0,0,0,0,0,0,0.0061,0.005,0.0051,0.0051,0.0027,0.0001,-0.0011,-0.0029,-0.009,-0.0096,-0.0177,-0.0204,-0.0311,-0.0365,-0.033,-0.0478,-0.0482,-0.0492,-0.0429,-0.0431,-0.0432,-0.0389,-0.0355,0,0,0,0,0,0.0066,0.0065,0.0046,0.0044,0.0038,0.0013,-0.0004,-0.0017,-0.0071,-0.0094,-0.0174,-0.0261,-0.0346,-0.0401,-0.0485,-0.0573,-0.0586,-0.061,-0.061,-0.0611,-0.0596,-0.0638,-0.064,-0.0624,-0.0624,-0.0624,0,0,0.007,0.006,0.0062,0.0045,0.0033,0.0026,0.0004,-0.0017,-0.0034,-0.0119,-0.0187,-0.0275,-0.0374,-0.0464,-0.0516,-0.0514,-0.0621,-0.0616,-0.0615,-0.0601,-0.0643,-0.0644,-0.0644,-0.0627,-0.0627,-0.0626,0,0,0.0075,0.0074,0.0078,0.0064,0.004,0.0024,0.0015,-0.0025,-0.005,-0.0135,-0.0193,-0.0289,-0.0434,-0.0489,-0.0539,-0.0602,-0.0627,-0.0643,-0.0612,-0.0653,-0.0653,-0.0654,-0.0652,-0.0653,-0.064,-0.064,-0.064,0,0.0076,0.0093,0.0069,0.0069,0.0061,0.0026,0.0028,-0.0002,-0.0084,-0.0117,-0.0158,-0.0347,-0.0436,-0.052,-0.0545,-0.06,-0.0615,-0.0592,-0.0649,-0.065,-0.0651,-0.065,-0.0651,-0.0637,-0.0638,-0.0638,-0.0638,0,0.009,0.0103,0.0102,0.0101,0.008,0.0077,0.0038,-0.0002,-0.0056,-0.0097,-0.021,-0.0328,-0.0432,-0.0485,-0.0543,-0.0602,-0.0606,-0.0641,-0.0629,-0.0648,-0.0647,-0.0649,-0.0634,-0.0635,-0.0636,-0.0636,0,0,0.0106,0.0114,0.0116,0.0131,0.0103,0.0092,0.0056,0.0016,0.0001,-0.0111,-0.015,-0.0313,-0.0368,-0.0429,-0.0509,-0.0557,-0.0588,-0.0603,-0.0607,-0.0571,-0.0648,-0.0606,-0.0605,-0.0633,-0.0634,-0.0635,-0.0634,0,0.0131,0.0154,0.0139,0.0156,0.0173,0.0129,0.0108,0.0058,-0.0008,-0.0062,-0.0175,-0.025,-0.0344,-0.0393,-0.046,-0.0567,-0.0596,-0.0582,-0.0663,-0.0664,-0.06,-0.0607,-0.0637,-0.0636,-0.0637,-0.0637,-0.0637,0,0.0154,0.0174,0.0208,0.0211,0.0213,0.0212,0.0176,0.0149,0.0071,0.0019,-0.0073,-0.0159,-0.0262,-0.0329,-0.0483,-0.0473,-0.0549,-0.062,-0.0622,-0.0602,-0.0627,-0.0625,-0.0642,-0.0642,-0.0641,-0.0641,-0.0641,0,0.0195,0.0212,0.0247,0.0253,0.0256,0.0252,0.0235,0.0173,0.0171,0.0085,0.0069,-0.0074,-0.0132,-0.0267,-0.0439,-0.046,-0.0584,-0.0627,-0.0644,-0.0641,-0.0701,-0.0701,-0.07,-0.07,-0.07,-0.07,-0.07,0,0.0231,0.0255,0.028,0.0312,0.0354,0.0313,0.0339,0.0295,0.0264,0.0262,0.013,0.0073,-0.0123,-0.0236,-0.0391,-0.052,-0.0544,-0.0624,-0.0642,-0.0677,-0.0674,-0.07,-0.0701,-0.0699,-0.07,-0.07,-0.07,0,0.0262,0.0284,0.0339,0.0371,0.0389,0.0413,0.0441,0.0451,0.041,0.0405,0.0389,0.0212,0.0034,-0.0132,-0.0347,-0.043,-0.0574,-0.0605,-0.0589,-0.0609,-0.0606,-0.0604,-0.0609,-0.0608,-0.0607,-0.0606,-0.0605,0,0.0272,0.0319,0.0402,0.0455,0.0479,0.0522,0.0559,0.0536,0.0534,0.0455,0.0439,0.0294,0.0155,-0.0098,-0.0303,-0.0509,-0.0553,-0.0566,-0.0625,-0.0581,-0.0599,-0.0599,-0.0598,-0.0603,-0.0602,-0.0602,-0.0602,0,0.0312,0.0355,0.0405,0.0523,0.0589,0.0631,0.0656,0.0668,0.0618,0.0642,0.0482,0.0326,0.0145,-0.0111,-0.0234,-0.0415,-0.0533,-0.0555,-0.0559,-0.0615,-0.0574,-0.0592,-0.0593,-0.0598,-0.0598,-0.0599,-0.0599,0,0.0339,0.0377,0.0464,0.055,0.0652,0.0656,0.0668,0.0639,0.0636,0.0566,0.0501,0.0282,0.0174,-0.0063,-0.0225,-0.0343,-0.0392,-0.0409,-0.0423,-0.0429,-0.0392,-0.0315,-0.026,0,0,0,0,0,0.0358,0.039,0.0478,0.0533,0.0631,0.067,0.0699,0.0687,0.0678,0.0599,0.0555,0.0369,0.0118,-0.0046,-0.0159,-0.0229,-0.0423,-0.0362,-0.0452,-0.0575,-0.058,-0.0566,0,0,0,0,0,0,0.0371,0.0442,0.046,0.0509,0.055,0.0601,0.0617,0.0593,0.0523,0.052,0.0357,0.0385,0.0098,0.0187,-0.0154,-0.0193,-0.0254,-0.0459,-0.046,-0.0572,-0.0576,-0.058,-0.0568,0,0,0,0,0]}]]